Columbia, MO

9:53 PM CST on January 18, 2017 (GMT -0600)
Columbia Regional

Weather History for KCOU - June, 2013

Change the Weather History Date:

Saturday, June 1, 2013

  Actual Average Record
Temperature  
Mean Temperature 68 °F 69 °F  
Max Temperature 74 °F 79 °F 100 °F (1934)
Min Temperature 61 °F 58 °F 43 °F (1894)
Degree Days  
Heating Degree Days 0 1  
Month to date heating degree days 0 1  
Since 1 June heating degree days 0 1  
Since 1 July heating degree days 4896 5013  
Cooling Degree Days 3 5  
Month to date cooling degree days 3 5  
Year to date cooling degree days 137 108  
Since 1 June cooling degree days 3 5  
Growing Degree Days 18 (Base 50)    
Moisture  
Dew Point 61 °F    
Average Humidity 79    
Maximum Humidity 100    
Minimum Humidity 57    
Precipitation  
Precipitation 0.04 in 0.15 in 2.91 in (1902)
Month to date precipitation 0.04 0.15  
Year to date precipitation 26.75 16.70  
Snow  
Snow 0.00 in 0.00 in 0.00 in (2015)
Month to date snowfall 0.0 0.0  
Since 1 June snowfall 0.0 0.0  
Since 1 July snowfall 35.0 18.0  
Snow Depth 0.00 in    
Sea Level Pressure  
Sea Level Pressure 29.79 in    
Wind  
Wind Speed 11 mph (WSW)    
Max Wind Speed 21 mph    
Max Gust Speed 27 mph    
Visibility 10 miles    
Events Rain    
T = Trace of Precipitation, MM = Missing Value Source: NWS Daily Summary

Daily Weather History Graph

Daily Weather History Graph

Search for Another Location

Airport or City:

Trip Planner

Search our weather history database for the weather conditions in past years. The results will help you decide how hot, cold, wet, or windy it might be!

Date:

Astronomy

Jun. 01, 2013 Rise Set
Actual Time 5:45 AM CDT 8:28 PM CDT
Civil Twilight 5:14 AM CDT 8:59 PM CDT
Nautical Twilight 4:35 AM CDT 9:39 PM CDT
Astronomical Twilight 3:50 AM CDT 10:23 PM CDT
Moon 1:37 AM CDT (6/1) 2:01 PM CDT (6/1)
Length of Visible Light 15h 45m
Length of Day
14h 42m
Last Quarter, 40% of the Moon is Illuminated
Jun 1
Last Quarter
Jun 8
New
Jun 16
First Quarter
Jun 23
Full
Jun 29
Last Quarter

Hourly Weather History & Observations

Time (CDT) Temp. Dew Point Humidity Pressure Visibility Wind Dir Wind Speed Gust Speed Precip Events Conditions
12:07 AM 64.0 °F 63.0 °F 96% 29.79 in 10.0 mi South 8.1 mph - 0.00 in Rain Light Rain
12:25 AM 64.0 °F 63.0 °F 96% 29.80 in 10.0 mi SSW 9.2 mph - 0.00 in   Mostly Cloudy
12:37 AM 64.0 °F 63.0 °F 96% 29.79 in 10.0 mi SSW 8.1 mph - 0.00 in   Scattered Clouds
12:54 AM 64.0 °F 62.1 °F 93% 29.77 in 10.0 mi South 6.9 mph - 0.00 in   Clear
1:51 AM 62.6 °F 62.6 °F 100% 29.74 in 8.0 mi East 5.8 mph - N/A   Partly Cloudy
1:54 AM 63.0 °F 62.1 °F 97% 29.73 in 7.0 mi ESE 5.8 mph - N/A   Partly Cloudy
2:24 AM 63.0 °F 62.1 °F 97% 29.72 in 7.0 mi SE 8.1 mph - N/A   Mostly Cloudy
2:39 AM 63.0 °F 62.1 °F 97% 29.73 in 9.0 mi SSE 8.1 mph - N/A   Mostly Cloudy
2:47 AM 63.0 °F 62.1 °F 97% 29.73 in 10.0 mi South 8.1 mph - N/A   Scattered Clouds
2:54 AM 63.0 °F 62.1 °F 97% 29.71 in 10.0 mi South 8.1 mph - N/A   Partly Cloudy
3:54 AM 63.0 °F 62.1 °F 97% 29.72 in 10.0 mi SE 5.8 mph - N/A   Mostly Cloudy
4:54 AM 63.0 °F 62.1 °F 97% 29.70 in 10.0 mi SSE 6.9 mph - 0.01 in   Mostly Cloudy
5:54 AM 64.0 °F 62.1 °F 93% 29.75 in 10.0 mi South 11.5 mph - 0.00 in Rain Light Rain
6:24 AM 64.0 °F 63.0 °F 96% 29.77 in 10.0 mi South 13.8 mph - 0.01 in Rain Light Rain
6:54 AM 64.9 °F 63.0 °F 93% 29.75 in 10.0 mi South 13.8 mph - 0.02 in Rain Light Rain
7:33 AM 64.9 °F 64.0 °F 97% 29.77 in 10.0 mi South 11.5 mph - 0.01 in   Mostly Cloudy
7:54 AM 66.0 °F 64.0 °F 93% 29.73 in 10.0 mi South 11.5 mph - 0.01 in Rain Light Rain
8:54 AM 66.9 °F 64.0 °F 90% 29.76 in 10.0 mi WNW 11.5 mph - 0.00 in   Partly Cloudy
9:19 AM 66.9 °F 64.0 °F 90% 29.78 in 10.0 mi West 9.2 mph - N/A   Mostly Cloudy
9:54 AM 68.0 °F 64.9 °F 90% 29.76 in 10.0 mi West 8.1 mph - N/A   Mostly Cloudy
10:21 AM 69.1 °F 64.9 °F 87% 29.76 in 10.0 mi WSW 11.5 mph - N/A   Scattered Clouds
10:36 AM 69.1 °F 64.0 °F 84% 29.76 in 10.0 mi WSW 11.5 mph - N/A   Mostly Cloudy
10:54 AM 69.1 °F 64.9 °F 87% 29.75 in 10.0 mi WSW 8.1 mph - N/A   Overcast
11:54 AM 72.0 °F 64.9 °F 78% 29.76 in 10.0 mi West 9.2 mph - N/A   Mostly Cloudy
12:10 PM 73.0 °F 64.9 °F 76% 29.78 in 10.0 mi West 10.4 mph - N/A   Scattered Clouds
12:20 PM 71.1 °F 63.0 °F 75% 29.79 in 10.0 mi WNW 12.7 mph - N/A   Mostly Cloudy
12:54 PM 72.0 °F 63.0 °F 73% 29.78 in 10.0 mi NW 11.5 mph - N/A   Mostly Cloudy
1:54 PM 72.0 °F 61.0 °F 68% 29.78 in 10.0 mi WNW 13.8 mph - N/A   Mostly Cloudy
2:01 PM 73.0 °F 59.0 °F 61% 29.80 in 10.0 mi West 17.3 mph 24.2 mph N/A   Mostly Cloudy
2:54 PM 73.0 °F 57.0 °F 57% 29.80 in 10.0 mi West 15.0 mph 24.2 mph N/A   Partly Cloudy
3:54 PM 72.0 °F 55.9 °F 57% 29.81 in 10.0 mi West 16.1 mph 24.2 mph N/A   Mostly Cloudy
4:54 PM 72.0 °F 55.9 °F 57% 29.82 in 10.0 mi West 12.7 mph - N/A   Overcast
5:54 PM 70.0 °F 54.0 °F 57% 29.83 in 10.0 mi West 15.0 mph - N/A   Mostly Cloudy
6:54 PM 69.1 °F 55.9 °F 63% 29.83 in 10.0 mi WNW 10.4 mph - N/A   Overcast
7:54 PM 68.0 °F 55.9 °F 65% 29.84 in 10.0 mi West 10.4 mph - N/A   Mostly Cloudy
8:54 PM 64.9 °F 57.0 °F 75% 29.86 in 10.0 mi WNW 10.4 mph - N/A   Scattered Clouds
9:54 PM 64.0 °F 55.9 °F 75% 29.89 in 10.0 mi WNW 9.2 mph - N/A   Partly Cloudy
10:54 PM 63.0 °F 54.0 °F 72% 29.92 in 10.0 mi NW 12.7 mph - N/A   Partly Cloudy
11:22 PM 63.0 °F 54.0 °F 72% 29.94 in 10.0 mi WNW 10.4 mph 19.6 mph N/A   Mostly Cloudy
11:54 PM 62.1 °F 54.0 °F 75% 29.93 in 10.0 mi NW 11.5 mph - N/A   Overcast